FW1018 Weather Reports


time (UTC)temp
C
wind
direction
speed
KPH
gust
KPH
rain 1hr
cm
rain 24hr
cm
rain mn
cm
humidity
%
barometer
mb
20260906142619 20 215 6.4 12.9 0.00 0.00 0.00 94 1014.9
20260906142119 20 215 3.2 12.9 0.00 0.00 0.00 94 1014.9
20260906141618 20 215 6.4 12.9 0.00 0.00 0.00 94 1014.8
20260906141118 20 215 3.2 11.3 0.00 0.00 0.00 94 1014.9
20260906140619 20 215 9.7 12.9 0.00 0.00 0.00 94 1014.9
20260906140119 20 215 6.4 12.9 0.00 0.00 0.00 94 1015.0
20260906134619 20 215 9.7 11.3 0.00 0.00 0.00 95 1015.2
20260906134118 18 214 6.4 6.4 0.00 0.00 0.00 97 1015.0
20260906133618 18 214 6.4 6.4 0.00 0.00 0.00 97 1015.0
20260906133118 18 214 6.4 6.4 0.00 0.00 0.00 97 1015.1
20260906132618 18 214 6.4 6.4 0.00 0.00 0.00 97 1014.8
20260906132118 18 214 6.4 6.4 0.00 0.00 0.00 97 1015.0
20260906131618 18 214 6.4 6.4 0.00 0.00 0.00 97 1015.1
20260906131118 18 214 6.4 6.4 0.00 0.00 0.00 97 1015.1
20260906130118 18 214 6.4 6.4 0.00 0.00 0.00 97 1014.8
20260906125117 18 214 6.4 6.4 0.00 0.00 0.00 97 1015.0
20260906124118 18 214 6.4 6.4 0.00 0.00 0.00 97 1014.5
20260906123117 18 214 6.4 6.4 0.00 0.00 0.00 97 1014.3
20260906122618 18 214 6.4 6.4 0.00 0.00 0.00 97 1014.4
20260906122117 18 214 6.4 6.4 0.00 0.00 0.00 97 1014.2
20260906121617 18 214 6.4 6.4 0.00 0.00 0.00 97 1014.1
20260906121117 18 214 6.4 6.4 0.00 0.00 0.00 97 1014.0
20260906120617 18 214 6.4 6.4 0.00 0.00 0.00 97 1013.9
20260906120117 18 214 6.4 6.4 0.00 0.00 0.00 97 1014.0
20260906115117 18 214 6.4 6.4 0.00 0.00 0.00 97 1013.8
20260906114617 18 214 6.4 6.4 0.00 0.00 0.00 97 1013.9
20260906114117 18 214 6.4 6.4 0.00 0.00 0.00 97 1013.8
20260906113617 18 214 6.4 6.4 0.00 0.00 0.00 97 1013.7
20260906113117 18 214 6.4 6.4 0.00 0.00 0.00 97 1013.7
20260906112617 18 214 6.4 6.4 0.00 0.00 0.00 97 1013.7
20260906112117 18 214 6.4 6.4 0.00 0.00 0.00 97 1013.7
20260906111617 18 214 6.4 6.4 0.00 0.00 0.00 97 1013.5
20260906111116 18 214 6.4 6.4 0.00 0.00 0.00 97 1013.5
20260906110616 18 214 6.4 6.4 0.00 0.00 0.00 97 1013.4
20260906105116 18 214 6.4 12.9 0.00 0.00 0.00 97 1013.2
20260906104616 18 214 6.4 12.9 0.00 0.00 0.00 97 1013.0
20260906103616 18 215 8.0 11.3 0.00 0.00 0.00 97 1013.0
20260906103116 18 215 6.4 9.7 0.00 0.00 0.00 97 1013.0
20260906102616 18 215 4.8 9.7 0.00 0.00 0.00 97 1013.2
20260906101616 18 215 3.2 8.0 0.00 0.00 0.00 96 1013.2
20260906101116 18 215 3.2 9.7 0.00 0.00 0.00 96 1013.0
20260906100616 18 215 4.8 12.9 0.00 0.00 0.00 96 1013.2
20260906100116 18 215 3.2 12.9 0.00 0.00 0.00 96 1013.0
20260906095616 18 215 4.8 9.7 0.00 0.00 0.00 96 1013.2
20260906095115 18 215 3.2 9.7 0.00 0.00 0.00 96 1013.1
20260906094615 18 215 4.8 8.0 0.00 0.00 0.00 96 1013.0
20260906094115 18 215 4.8 6.4 0.00 0.00 0.00 96 1013.0
20260906093615 18 215 6.4 8.0 0.00 0.00 0.00 96 1013.0
20260906093115 18 215 1.6 8.0 0.00 0.00 0.00 96 1013.0
20260906092615 18 215 6.4 8.0 0.00 0.00 0.00 96 1012.9
20260906091615 18 215 6.4 12.9 0.00 0.00 0.00 96 1012.8
20260906091115 18 215 8.0 9.7 0.00 0.00 0.00 96 1012.9
20260906090615 19 215 4.8 9.7 0.00 0.00 0.00 96 1012.9
20260906090115 19 215 4.8 8.0 0.00 0.00 0.00 96 1012.9
20260906085615 19 215 6.4 9.7 0.00 0.00 0.00 96 1013.0
20260906085115 19 215 1.6 9.7 0.00 0.00 0.00 96 1013.0
20260906084615 19 215 4.8 9.7 0.00 0.00 0.00 96 1013.0
20260906084115 19 215 3.2 9.7 0.00 0.00 0.00 96 1013.0
20260906083615 19 215 4.8 9.7 0.00 0.00 0.00 96 1013.0
20260906082614 19 215 3.2 8.0 0.00 0.00 0.00 96 1013.1
20260906082114 19 215 4.8 8.0 0.00 0.00 0.00 96 1013.1
20260906081614 19 215 4.8 8.0 0.00 0.00 0.00 96 1013.1
20260906081115 19 215 1.6 4.8 0.00 0.00 0.00 95 1013.1
20260906080615 19 215 3.2 6.4 0.00 0.00 0.00 95 1013.1
20260906075614 19 215 1.6 11.3 0.00 0.00 0.00 95 1013.0
20260906074614 20 215 6.4 9.7 0.00 0.00 0.00 95 1013.1
20260906074114 20 215 3.2 9.7 0.00 0.00 0.00 95 1013.1
20260906073614 20 215 4.8 9.7 0.00 0.00 0.00 95 1013.1
20260906073114 20 215 4.8 9.7 0.00 0.00 0.00 95 1013.0
20260906072114 20 215 1.6 4.8 0.00 0.00 0.00 95 1013.4
20260906071614 20 215 1.6 6.4 0.00 0.00 0.00 95 1013.4
20260906070614 20 215 0.0 9.7 0.00 0.00 0.00 95 1013.4
20260906070114 20 215 4.8 6.4 0.00 0.00 0.00 94 1013.5
20260906065614 20 215 4.8 6.4 0.00 0.00 0.00 94 1013.6
20260906065114 20 215 1.6 4.8 0.00 0.00 0.00 94 1013.8
20260906064614 20 215 3.2 4.8 0.00 0.00 0.00 94 1013.7
20260906064114 20 215 0.0 6.4 0.00 0.00 0.00 94 1013.9
20260906063614 20 215 3.2 6.4 0.00 0.00 0.00 94 1013.8
20260906063113 20 215 0.0 6.4 0.00 0.00 0.00 93 1013.8
20260906062113 20 215 1.6 6.4 0.00 0.00 0.00 93 1013.8
20260906061613 20 215 4.8 6.4 0.00 0.00 0.00 93 1013.6
20260906061114 20 215 1.6 6.4 0.00 0.00 0.00 93 1013.5
20260906060613 21 215 1.6 9.7 0.00 0.00 0.00 92 1013.6
20260906060113 21 215 3.2 9.7 0.00 0.00 0.00 92 1013.5
20260906055613 21 215 4.8 9.7 0.00 0.00 0.00 92 1013.6
20260906054613 21 215 1.6 11.3 0.00 0.00 0.00 92 1013.5
20260906054113 21 215 4.8 11.3 0.00 0.00 0.00 92 1013.4
20260906053613 21 215 6.4 9.7 0.00 0.00 0.00 92 1013.3
20260906052613 21 215 3.2 8.0 0.00 0.00 0.00 92 1013.2
20260906051613 21 215 3.2 9.7 0.00 0.00 0.00 92 1013.0
20260906051113 21 215 4.8 9.7 0.00 0.00 0.00 92 1013.0
20260906050612 21 215 3.2 11.3 0.00 0.00 0.00 92 1013.0
20260906050112 21 215 6.4 11.3 0.00 0.00 0.00 92 1013.0
20260906045612 21 215 6.4 11.3 0.00 0.00 0.00 92 1012.9
20260906045112 21 215 4.8 9.7 0.00 0.00 0.00 92 1012.9
20260906044113 21 215 3.2 12.9 0.00 0.00 0.00 92 1012.8
20260906043612 21 215 4.8 12.9 0.00 0.00 0.00 91 1012.8
20260906043112 21 215 4.8 8.0 0.00 0.00 0.00 91 1012.7
20260906042112 21 215 3.2 12.9 0.00 0.00 0.00 91 1012.6
20260906040612 21 215 0.0 11.3 0.00 0.00 0.00 91 1012.6
20260906035611 21 215 3.2 14.5 0.00 0.00 0.00 91 1012.3
20260906035112 21 215 0.0 16.1 0.00 0.00 0.00 91 1012.3
20260906034112 21 215 6.4 16.1 0.00 0.00 0.00 91 1012.1
20260906033612 21 215 4.8 16.1 0.00 0.00 0.00 90 1012.1
20260906033112 21 215 4.8 19.3 0.00 0.00 0.00 90 1012.1
20260906032611 21 215 1.6 22.5 0.00 0.00 0.00 90 1012.1
20260906031611 21 216 9.7 20.9 0.00 0.00 0.00 90 1011.9
20260906031111 21 216 14.5 19.3 0.00 0.00 0.00 90 1012.0
20260906025611 22 216 6.4 25.7 0.00 0.00 0.00 89 1011.7
20260906025111 22 216 3.2 19.3 0.00 0.00 0.00 89 1011.8
20260906024610 22 216 6.4 19.3 0.00 0.00 0.00 89 1011.6
20260906024110 22 217 12.9 19.3 0.00 0.00 0.00 89 1011.6
20260906023610 22 217 12.9 24.1 0.00 0.00 0.00 88 1011.6
20260906023110 22 217 8.0 24.1 0.00 0.00 0.00 88 1011.4
20260906022610 22 215 17.7 24.1 0.00 0.00 0.00 89 1011.4
20260906022110 23 215 4.8 24.1 0.00 0.00 0.00 89 1011.3
20260906021610 23 214 6.4 22.5 0.00 0.00 0.00 89 1011.4
20260906021110 23 214 8.0 22.5 0.00 0.00 0.00 89 1011.3
20260906020610 23 215 14.5 22.5 0.00 0.00 0.00 89 1011.3
20260906020110 23 214 9.7 19.3 0.00 0.00 0.00 89 1011.3
20260906015610 23 214 8.0 17.7 0.00 0.00 0.00 89 1011.2
20260906014610 23 214 16.1 20.9 0.00 0.00 0.00 88 1011.2
20260906014110 23 214 4.8 19.3 0.00 0.00 0.00 88 1011.2
20260906012610 23 214 3.2 8.0 0.00 0.00 0.00 87 1011.2
20260906012109 23 214 3.2 8.0 0.00 0.00 0.00 87 1011.1
20260906011609 23 214 4.8 8.0 0.00 0.00 0.00 87 1011.0
20260906011110 23 214 4.8 8.0 0.00 0.00 0.00 87 1010.9
20260906010609 23 214 3.2 11.3 0.00 0.00 0.00 87 1010.9
20260906010109 23 214 4.8 11.3 0.00 0.00 0.00 87 1010.8
20260906005610 23 214 3.2 6.4 0.00 0.00 0.00 87 1010.7
20260906005109 23 214 4.8 6.4 0.00 0.00 0.00 87 1010.6
20260906003609 24 214 4.8 6.4 0.00 0.00 0.00 87 1010.8
20260906003109 24 214 3.2 6.4 0.00 0.00 0.00 87 1010.8
20260906002609 24 214 1.6 6.4 0.00 0.00 0.00 86 1010.8
20260906002109 24 214 1.6 9.7 0.00 0.00 0.00 86 1010.6
20260906001609 24 214 1.6 9.7 0.00 0.00 0.00 86 1010.6
20260906001109 25 214 3.2 9.7 0.00 0.00 0.00 86 1010.8
20260906000609 25 214 3.2 9.7 0.00 0.00 0.00 85 1010.8
20260906000109 25 214 1.6 8.0 0.00 0.00 0.00 85 1010.8
20260905235609 25 214 1.6 8.0 0.00 0.00 0.00 85 1010.9
20260905235109 25 214 1.6 8.0 0.00 0.00 0.00 85 1011.0
20260905234608 25 214 4.8 8.0 0.00 0.00 0.00 84 1010.9
20260905234108 25 214 1.6 8.0 0.00 0.00 0.00 84 1011.0
20260905233608 25 214 1.6 8.0 0.00 0.00 0.00 83 1011.1
20260905233108 25 214 1.6 9.7 0.00 0.00 0.00 83 1011.1
20260905232609 25 214 4.8 11.3 0.00 0.00 0.00 83 1011.1
20260905232108 25 214 4.8 11.3 0.00 0.00 0.00 83 1011.0
20260905231608 25 214 6.4 11.3 0.00 0.00 0.00 83 1011.0
20260905231108 25 214 6.4 12.9 0.00 0.00 0.00 82 1010.8
20260905230608 25 214 9.7 12.9 0.00 0.00 0.00 83 1010.8
20260905230108 25 214 1.6 9.7 0.00 0.00 0.00 84 1010.8
20260905225608 25 214 6.4 11.3 0.00 0.00 0.00 84 1011.0
20260905225108 25 214 4.8 11.3 0.00 0.00 0.00 84 1010.9
20260905224608 25 214 8.0 14.5 0.00 0.00 0.00 84 1010.9
20260905224108 26 214 8.0 14.5 0.00 0.00 0.00 84 1011.0
20260905223608 26 214 3.2 16.1 0.00 0.00 0.00 84 1011.0
20260905223108 26 214 6.4 17.7 0.00 0.00 0.00 83 1011.0
20260905222608 26 214 9.7 17.7 0.00 0.00 0.00 83 1010.6
20260905222108 26 214 6.4 16.1 0.00 0.00 0.00 82 1010.6
20260905221607 26 214 6.4 12.9 0.00 0.00 0.00 82 1010.5
20260905221107 26 214 6.4 12.9 0.00 0.00 0.00 83 1010.5
20260905220108 26 214 9.7 17.7 0.00 0.00 0.00 82 1010.6
20260905215607 26 214 6.4 17.7 0.00 0.00 0.00 83 1010.6
20260905215107 26 214 12.9 17.7 0.00 0.00 0.00 82 1010.6
20260905214607 27 214 3.2 17.7 0.00 0.00 0.00 82 1010.4
20260905214107 27 214 9.7 17.7 0.00 0.00 0.00 83 1010.4
20260905213607 27 214 6.4 17.7 0.00 0.00 0.00 82 1010.4
20260905213107 27 214 16.1 17.7 0.00 0.00 0.00 81 1010.4
20260905212607 27 214 8.0 17.7 0.00 0.00 0.00 83 1010.4
20260905212106 27 214 11.3 16.1 0.00 0.00 0.00 81 1010.3
20260905211607 27 214 12.9 16.1 0.00 0.00 0.00 81 1010.2
20260905211106 27 214 6.4 19.3 0.00 0.00 0.00 82 1010.2
20260905210107 28 214 8.0 17.7 0.00 0.00 0.00 81 1010.3
20260905205606 28 214 4.8 19.3 0.00 0.00 0.00 81 1010.4
20260905205106 28 214 6.4 19.3 0.00 0.00 0.00 81 1010.5
20260905204606 28 214 8.0 16.1 0.00 0.00 0.00 81 1010.4
20260905204106 28 214 6.4 17.7 0.00 0.00 0.00 80 1010.3
20260905203606 28 215 14.5 17.7 0.00 0.00 0.00 81 1010.4
20260905203106 28 215 4.8 20.9 0.00 0.00 0.00 82 1010.3
20260905202106 28 215 9.7 22.5 0.00 0.00 0.00 81 1010.3
20260905201106 28 215 4.8 19.3 0.00 0.00 0.00 81 1010.3
20260905200605 28 215 6.4 19.3 0.00 0.00 0.00 81 1010.3
20260905200105 28 215 11.3 17.7 0.00 0.00 0.00 81 1010.2
20260905195605 28 215 11.3 20.9 0.00 0.00 0.00 81 1010.4
20260905195105 28 215 11.3 20.9 0.00 0.00 0.00 81 1010.3
20260905194605 28 215 9.7 17.7 0.00 0.00 0.00 80 1010.5
20260905194105 28 214 14.5 17.7 0.00 0.00 0.00 80 1010.4
20260905193605 29 215 9.7 17.7 0.00 0.00 0.00 80 1010.5
20260905193105 29 214 6.4 14.5 0.00 0.00 0.00 79 1010.5
20260905192604 29 215 8.0 14.5 0.00 0.00 0.00 78 1010.5
20260905192104 29 214 9.7 12.9 0.00 0.00 0.00 80 1010.5
20260905191604 28 214 4.8 12.9 0.00 0.00 0.00 81 1010.4
20260905191104 28 215 3.2 16.1 0.00 0.00 0.00 80 1010.6
20260905190604 29 214 4.8 16.1 0.00 0.00 0.00 79 1010.6
20260905190104 29 214 8.0 12.9 0.00 0.00 0.00 80 1010.4
20260905185604 29 214 4.8 12.9 0.00 0.00 0.00 79 1010.6
20260905185104 28 215 11.3 16.1 0.00 0.00 0.00 80 1010.6
20260905184604 29 214 12.9 16.1 0.00 0.00 0.00 80 1010.7
20260905184104 28 214 8.0 14.5 0.00 0.00 0.00 81 1010.7
20260905182604 29 214 8.0 12.9 0.00 0.00 0.00 81 1010.7
20260905182104 28 215 4.8 12.9 0.00 0.00 0.00 82 1010.7
20260905181603 29 214 9.7 12.9 0.00 0.00 0.00 79 1010.7
20260905181104 29 214 4.8 11.3 0.00 0.00 0.00 81 1010.7
20260905175603 28 215 8.0 12.9 0.00 0.00 0.00 81 1010.9
20260905175103 28 214 6.4 12.9 0.00 0.00 0.00 80 1011.0
20260905174603 28 214 6.4 11.3 0.00 0.00 0.00 82 1011.0
20260905174103 28 214 8.0 11.3 0.00 0.00 0.00 81 1011.1
20260905173603 28 214 0.0 11.3 0.00 0.00 0.00 81 1011.1
20260905173103 28 214 6.4 11.3 0.00 0.00 0.00 82 1011.0
20260905172603 28 214 4.8 11.3 0.00 0.00 0.00 81 1011.1
20260905172102 28 214 1.6 14.5 0.00 0.00 0.00 82 1011.0
20260905171603 28 214 6.4 14.5 0.00 0.00 0.00 83 1011.1
20260905171102 28 214 4.8 12.9 0.00 0.00 0.00 83 1011.1
20260905170602 28 215 6.4 11.3 0.00 0.00 0.00 82 1011.2
20260905165602 28 214 8.0 12.9 0.00 0.00 0.00 82 1011.1
20260905164602 28 214 9.7 14.5 0.00 0.00 0.00 84 1011.0
20260905164102 28 214 4.8 12.9 0.00 0.00 0.00 85 1011.1
20260905163602 27 214 6.4 12.9 0.00 0.00 0.00 86 1011.1
20260905163102 27 214 4.8 12.9 0.00 0.00 0.00 85 1011.1
20260905162602 27 214 4.8 11.3 0.00 0.00 0.00 87 1011.1
20260905161602 27 214 4.8 12.9 0.00 0.00 0.00 86 1011.2
20260905161102 27 214 6.4 11.3 0.00 0.00 0.00 87 1011.1
20260905160602 27 215 3.2 9.7 0.00 0.00 0.00 87 1011.1
20260905155601 27 214 3.2 12.9 0.00 0.00 0.00 88 1011.3
20260905154101 27 214 9.7 9.7 0.00 0.00 0.00 87 1011.1
20260905153601 27 214 3.2 16.1 0.00 0.00 0.00 87 1011.0
20260905153101 27 214 4.8 16.1 0.00 0.00 0.00 88 1011.0
20260905152601 27 215 4.8 12.9 0.00 0.00 0.00 87 1011.0
20260905151601 26 215 3.2 16.1 0.00 0.00 0.00 89 1010.8
20260905151101 26 215 6.4 16.1 0.00 0.00 0.00 88 1010.6
20260905145601 26 214 8.0 19.3 0.00 0.00 0.00 89 1010.5
20260905145101 27 215 4.8 19.3 0.00 0.00 0.00 89 1010.5
20260905144601 27 214 4.8 16.1 0.00 0.00 0.00 89 1010.5
20260905144101 27 215 6.4 17.7 0.00 0.00 0.00 89 1010.4
20260905143601 27 215 9.7 22.5 0.00 0.00 0.00 89 1010.3
20260905143101 27 215 9.7 22.5 0.00 0.00 0.00 89 1010.2